Location: Coed Ely
(51.5661°N, 3.4150°W)
Time: 23:44:52
(UTC+00:00)

USA 234 - Pass Details

Date: 28 January 2021
Orbit: 1100 x 1107 km, 123.0° (Epoch: 27 February)

Event Time Altitude Azimuth Distance (km) Brightness Sun altitude
Exits shadow 19:53:11 56° 53° (NE) 1,297 3.3 -27.4°
Maximum altitude 19:54:11 63° 13° (NNE) 1,225 3.3 -27.5°
Drops below altitude 10° 20:00:38 10° 295° (WNW) 2,968 6.4 -28.5°
Sets 20:03:08 0° 292° (WNW) 3,927 7.3 -28.9°
